Satellite-Ground Cal/Val Site Overpasses Predictions

Prediction of Satellite NPP Overpassing Cal/Val Site: Antarctic Dome C

Ground Cal/Val Site Location: Latitude: -75.10, Longitude: 123.35; Satellite-Ground Site NADIR distance within 100 km.

Table of predicted overpasses for the next 14.0 days since TLE Epoch: 10/15/2022
Interval Starting Time Ending Time Minimum Distance Time Minimum Distance (km)
1 10/15/2022 15:02:18 10/15/2022 15:02:41 10/15/2022 15:02:29 62.01
2 10/16/2022 14:43:26 10/16/2022 14:43:52 10/16/2022 14:43:39 47.29
3 10/17/2022 07:45:08 10/17/2022 07:45:28 10/17/2022 07:45:18 71.95
4 10/18/2022 07:26:14 10/18/2022 07:26:42 10/18/2022 07:26:28 35.85
5 10/20/2022 15:08:43 10/20/2022 15:08:45 10/20/2022 15:08:44 99.55
6 10/21/2022 14:49:40 10/21/2022 14:50:09 10/21/2022 14:49:54 12.24
7 10/23/2022 07:32:29 10/23/2022 07:32:58 10/23/2022 07:32:43 2.90
8 10/26/2022 14:55:54 10/26/2022 14:56:23 10/26/2022 14:56:09 24.38
9 10/27/2022 14:37:12 10/27/2022 14:37:28 10/27/2022 14:37:20 82.86
